Location: Lac de la Montange Noire
(46.1952°N, 74.2701°W)
Time: 21:57:52
(UTC-04:00)

Iridium 42 - Visible Passes

Search period start: 30 May 2016 00:00
Search period end: 09 June 2016 00:00
Orbit: 775 x 778 km, 86.4° (Epoch: 30 May)

Date Brightness Start Highest point End Pass type
(mag) Time Alt. Az. Time Alt. Az. Time Alt. Az.
30 May 8.2 21:59:07 10° WSW 22:02:49 19° WNW 22:06:31 10° NNW visible
31 May 7.4 21:24:04 10° SW 21:28:43 33° WNW 21:33:25 10° NNW visible
02 Jun 8.4 21:59:39 10° W 22:02:21 14° WNW 22:05:05 10° NW visible
03 Jun 8.0 21:24:00 10° SW 21:28:11 24° WNW 21:32:24 10° NNW visible
06 Jun 8.3 21:24:12 10° WSW 21:27:41 18° WNW 21:31:11 10° NNW visible
